ECHOSTAR 6

导读 | 豆包AI

ECHOSTAR 6是美国EchoStar公司运营的地球静止轨道通信卫星,于2000年7月14日成功发射。作为EchoStar卫星星座的重要成员,它主要承担卫星电视广播传输服务,为北美地区提供直接到户的数字电视信号,依托高功率转发器技术保障信号稳定覆盖,助力EchoStar星座构建起覆盖广泛的卫星通信网络,推动了卫星电视业务的普及与发展。

基本信息
目录编号:
26402
目录名称:
ECHOSTAR 6
国际标识:
2000-038A
轨道中心:
EARTH
卫星名称:
ECHOSTAR 6
卫星全名:
--
卫星状态:
在轨 (已飞行9411 天)
发射日期:
2000-07-14 UTC
国别 :
美国 (US)
星等 :
--
轨道信息
数据来源 国际轨道数据 AOE轨道数据
星历时间 2026-04-19T13:03:37+0800
23小时前
查看轨道信息
2026-04-19T15:00:00+0800
21小时前
查看轨道信息
半长轴 42585.372km 42585.314km
偏心率 0.0005855 0.0005916
轨道倾角 10.736° 10.737°
近地点辐角 321.697° 320.947°
升交点赤经 47.143° 47.144°
平近点角 219.121° 248.617°
近地点 36182.301km 36181.983km
远地点 36232.169km 36232.371km
周期 1457.640分钟 1457.637分钟
每日圈数 0.987898 0.9879
详细信息
使用方式:
暂无
2D轨道图
3D轨道图
轨道高度分析图
轨道倾角分析图
轨道综合分析图
查看轨道综合分析图